This demonstration page uses our WeatherBlox Daily Observations layout. Learn more.

Left ArrowRight Arrow

39.12711, -84.51439

Hourly Observations for December 31, 2018

Temp ( °F °C ) Dew Point ( °F °C ) Humidity (%) Winds ( mph kmh ) Pressure ( in mb ) Visibility ( mi km ) Precip ( " mm )
12:53 am 00:53 Clear 35 1.7 31 -0.6 85 85 Calm 30.11 1020 10 16 0.00 0.00
1:53 am 01:53 Clear 36 2.2 32 0 86 86 Calm 30.09 1019 10 16 0.00 0.00
2:53 am 02:53 Clear 37 2.8 33 0.6 86 86 Calm 30.08 1019 10 16 0.00 0.00
3:53 am 03:53 Cloudy with Light Rain 37 2.8 34 1.1 89 89 Calm 30.04 1017 10 16 0.00 0.03
4:53 am 04:53 Cloudy with Light Rain 38 3.3 36 2.2 93 93 Calm 30.04 1017 6 10 0.02 0.51
5:17 am 05:17 Cloudy with Rain 38 3.3 37 2.8 97 97 Calm 30.03 1017 4 6 0.04 1.02
5:38 am 05:38 Cloudy with Rain 38 3.3 37 2.8 97 97 Calm 30.03 1017 3 5 0.09 2.29
5:53 am 05:53 Cloudy with Rain 38 3.3 37 2.8 97 97 NNE 3 6 30.02 1017 3 5 0.14 3.56
6:53 am 06:53 Cloudy with Rain 39 3.9 38 3.3 96 96 Calm 29.99 1016 3 5 0.14 3.56
6:55 am 06:55 Cloudy with Rain 39 3.9 38 3.3 96 96 Calm 29.97 1015 3 5 0.00 0.03
7:11 am 07:11 Cloudy with Light Rain 39 3.9 38 3.3 96 96 Calm 29.97 1015 3 4 0.03 0.76
7:30 am 07:30 Cloudy with Light Rain 39 3.9 38 3.3 96 96 S 3 6 29.97 1015 3 5 0.07 1.78
7:44 am 07:44 Cloudy with Light Rain 39 3.9 38 3.3 96 96 Calm 29.97 1015 3 5 0.09 2.29
7:53 am 07:53 Cloudy with Light Rain 40 4.4 39 3.9 97 97 Calm 29.97 1015 4 6 0.09 2.29
8:53 am 08:53 Cloudy with Light Rain 41 5 40 4.4 96 96 NE 3 6 29.95 1014 3 4 0.04 1.02
9:09 am 09:09 Cloudy with Rain 42 5.6 41 5 96 96 Calm 29.94 1014 2 3 0.03 0.76
9:20 am 09:20 Cloudy with Light Rain 44 6.7 42 5.6 93 93 Calm 29.94 1014 3 4 0.03 0.76
9:37 am 09:37 Cloudy with Light Rain 43 6.1 42 5.6 97 97 Calm 29.94 1014 2 2 0.05 1.27
9:53 am 09:53 Cloudy with Light Rain 44 6.7 43 6.1 96 96 Calm 29.91 1013 1 2 0.08 2.03
10:53 am 10:53 Cloudy with Rain 46 7.8 45 7.2 96 96 Calm 29.87 1011 1 2 0.13 3.30
11:51 am 11:51 Cloudy with Light Rain 52 11 50 10 94 94 Calm 29.83 1010 3 4 0.12 3.05
11:53 am 11:53 Cloudy with Light Rain 51 10.6 49 9.4 92 92 Calm 29.80 1009 3 5 0.12 3.05
12:50 pm 12:50 Cloudy with Rain 52 11 52 11 100 100 WSW 3 6 29.77 1008 2 3 0.05 1.27
12:53 pm 12:53 Cloudy with Heavy Rain 52 11.1 51 10.6 97 97 VRB 3 6 29.74 1007 2 2 0.06 1.52
1:02 pm 13:02 Cloudy with Rain 53 11.7 51 10.6 93 93 SW 5 7 29.74 1007 3 5 0.01 0.25
1:26 pm 13:26 Cloudy with Rain 54 12.2 53 11.7 97 97 VRB 7 11 29.71 1006 2 3 0.06 1.52
1:35 pm 13:35 Cloudy with Light Rain 54 12.2 53 11.7 97 97 Calm 29.68 1005 3 5 0.07 1.78
1:53 pm 13:53 Cloudy with Mist and Fog 54 12.2 53 11.7 97 97 WSW 3 6 29.68 1005 5 8 0.07 1.78
2:33 pm 14:33 Cloudy 57 13.9 55 12.8 93 93 WSW 5 7 29.65 1004 10 16 0.00 0.03
2:53 pm 14:53 Cloudy with Light Rain 58 14.4 56 13.3 93 93 WSW 7 11 29.65 1004 10 16 0.00 0.03
3:53 pm 15:53 Cloudy with Rain 62 16.7 59 15 90 90 S 14 22 29.63 1004 2 3 0.02 0.51
4:25 pm 16:25 Cloudy with Light Rain 63 17.2 60 15.6 90 90 S 15 24 29.62 1003 5 8 0.09 2.29
4:48 pm 16:48 Cloudy with Rain 63 17 61 16 94 94 S 12 19 29.62 1003 3 4 0.14 3.56
4:53 pm 16:53 Cloudy with Heavy Rain 62 16.7 60 15.6 93 93 S 12 19 29.61 1003 3 4 0.17 4.32
5:09 pm 17:09 Cloudy with Rain 62 16.7 60 15.6 93 93 WSW 9 15 29.62 1003 3 4 0.04 1.02
5:53 pm 17:53 Cloudy with Light Rain 62 16.7 60 15.6 93 93 SSW 12 19 29.66 1005 4 6 0.19 4.83
6:18 pm 18:18 Cloudy with Light Rain 62 16.7 58 14.4 86 86 S 16 26 29.62 1003 10 16 0.03 0.76
6:53 pm 18:53 Mostly Cloudy 61 16.1 57 13.9 87 87 S 17 28 29.61 1003 10 16 0.04 1.02
7:53 pm 19:53 Cloudy 61 16.1 55 12.8 81 81 SW 22 35 29.68 1005 10 16 0.00 0.00
8:53 pm 20:53 Partly Cloudy 60 15.6 53 11.7 78 78 SSW 20 31 29.70 1006 10 16 0.00 0.00
9:53 pm 21:53 Mostly Cloudy 59 15 51 10.6 75 75 SW 20 31 29.73 1007 10 16 0.00 0.00
10:53 pm 22:53 Cloudy 58 14.4 48 8.9 70 70 WSW 22 35 29.78 1009 10 16 0.00 0.00
11:53 pm 23:53 Mostly Cloudy 54 12.2 45 7.2 72 72 W 24 39 29.85 1011 10 16 0.00 0.00

Powered by AerisWeather